Home   Weather   Jülich   Past weeks

Flag for Germany Past Weather in Jülich, North Rhine-Westphalia, Germany — Yesterday and Last 2 Weeks

Now
52 °F

Partly sunny.


Feels Like: 49 °F
Forecast: 40 / 48 °F
Wind: 8 mph from West

Location: Geilenkirchen Airport

Current Time: Dec 9, 2016 at 12:50:05 pm

Latest Report: Dec 9, 2016 at 11:50 am


Visibility: N/A

Pressure: 30.39 "Hg

Humidity: 72%

Dew Point: 43 °F

Location of JülichLocation

Past Weather in Jülich — Graph

°F

Jülich Temperature Yesterday

Maximum temperature yesterday: 50 °F (at 12:50 am)
Minimum temperature yesterday: 36 °F (at 8:50 am)
Average temperature yesterday: 46 °F

High & Low Weather Summary for the Past Weeks

 TemperatureHumidityPressure
High54 °F (Dec 7, 1:50 pm)100% (Nov 27, 10:50 pm)30.57 "Hg (Nov 27, 10:50 pm)
Low21 °F (Nov 29, 4:50 am)50% (Dec 8, 10:50 am)30.09 "Hg (Nov 24, 3:50 pm)
Average38 °F81%30.36 "Hg
* Reported Nov 24 10:50 am — Dec 9 10:50 am, Jülich, Weather by CustomWeather, © 2016

Note: Actual official high and low records may vary slightly from our data, if they occured in-between our weather recording intervals... More about our weather records

Advertising

Jülich Weather History for the Previous 24 Hours

Scroll right to see more
 ConditionsComfort  
Time TempWeatherWind HumidityBarometerVisibility
10:50 am
Fri, Dec 9
52 °FPartly sunny.7 mph67%30.39 "HgN/A
9:50 am50 °FBroken clouds.8 mph76%30.39 "HgN/A
8:50 am48 °FLow clouds.9 mph87%30.39 "Hg5 mi
7:50 am46 °FPassing clouds.7 mph87%30.39 "Hg5 mi
6:50 am48 °FPassing clouds.8 mph76%30.39 "HgN/A
5:50 am48 °FPassing clouds.10 mph76%30.39 "HgN/A
4:50 am48 °FPassing clouds.10 mph76%30.39 "HgN/A
3:50 am48 °FPassing clouds.10 mph76%30.39 "HgN/A
2:50 am48 °FPassing clouds.12 mph76%30.39 "HgN/A
1:50 am46 °FPassing clouds.12 mph82%30.39 "HgN/A
12:50 am46 °FPassing clouds.10 mph82%30.39 "HgN/A
11:50 pm
Thu, Dec 8
46 °FPassing clouds.13 mph76%30.39 "HgN/A
10:50 pm48 °FPassing clouds.10 mph71%30.39 "HgN/A
9:50 pm50 °FPassing clouds.9 mph62%30.36 "HgN/A
8:50 pm48 °FPassing clouds.10 mph66%30.36 "HgN/A
7:50 pm48 °FClear.14 mph66%30.36 "Hg10 mi
6:50 pm46 °FPassing clouds.12 mph71%30.36 "HgN/A
5:50 pm48 °FClear.12 mph62%30.33 "Hg10 mi
4:50 pm46 °FClear.10 mph62%30.36 "Hg10 mi
3:50 pm50 °FSunny.9 mph54%30.36 "Hg10 mi
2:50 pm50 °FSunny.9 mph54%30.36 "Hg10 mi
1:50 pm50 °FSunny.12 mph54%30.36 "Hg10 mi
12:50 pm50 °FSunny.7 mph54%30.39 "Hg10 mi
Weather by CustomWeather, © 2016

See weather overviewHow to use our weather pages